WET,Max TemperatureF,Mean TemperatureF,Min TemperatureF,Max Dew PointF,MeanDew PointF,Min DewpointF,Max Humidity, Mean Humidity, Min Humidity, Max Sea Level PressureIn, Mean Sea Level PressureIn, Min Sea Level PressureIn, Max VisibilityMiles, Mean VisibilityMiles, Min VisibilityMiles, Max Wind SpeedMPH, Mean Wind SpeedMPH, Max Gust SpeedMPH,PrecipitationIn, CloudCover, Events, WindDirDegrees
2013-10-1,86,73,60,64,61,57,94,68,30,30.04,29.97,29.82,6,5,3,10,3,,0.00,1,,336
2013-10-2,86,74,62,64,62,60,88,70,35,29.98,29.89,29.71,6,6,4,14,4,,0.00,2,,315
2013-10-3,82,76,69,64,62,61,73,61,38,30.04,29.93,29.80,6,4,3,9,4,,0.00,4,,311
2013-10-4,79,72,66,66,62,59,94,72,46,30.18,30.08,29.96,6,5,3,10,5,,0.00,5,,306
2013-10-5,82,72,63,61,57,52,88,62,31,30.21,30.15,30.04,6,6,4,9,2,,0.00,4,,298
2013-10-6,84,70,55,56,51,48,82,52,22,30.18,30.11,29.96,7,6,6,9,3,,0.00,,,297
2013-10-7,81,69,57,57,54,52,82,57,28,30.09,30.05,29.93,6,6,6,9,3,,0.00,1,,310
2013-10-8,86,73,60,59,55,50,82,55,22,30.06,29.99,29.83,6,6,6,13,4,,0.00,1,,70
2013-10-9,86,74,61,54,52,49,68,47,22,30.01,29.93,29.77,6,6,6,13,5,,0.00,1,,64
2013-10-10,85,72,60,61,55,52,78,56,25,30.01,29.92,29.78,6,6,5,9,4,,0.00,1,,318
2013-10-11,82,70,59,61,58,55,94,68,35,30.06,29.97,29.84,6,5,3,10,4,,0.00,2,,276
2013-10-12,77,68,59,60,57,52,94,72,36,30.21,30.12,30.04,6,4,2,10,3,,0.00,4,,309
2013-10-13,75,64,52,55,53,49,94,69,34,30.21,30.17,30.05,6,5,4,9,3,,0.00,2,,324
2013-10-14,75,63,51,54,50,48,94,66,32,30.21,30.16,30.05,6,6,6,10,3,,0.00,3,,292
2013-10-15,81,68,54,54,50,46,82,55,24,30.21,30.16,30.04,6,6,6,7,4,,0.00,,,282
2013-10-16,84,70,57,56,50,47,73,50,20,30.18,30.14,30.01,6,6,6,6,3,,0.00,,,317
2013-10-17,89,74,59,55,45,34,64,39,7,30.12,30.04,29.89,6,6,6,9,5,,0.00,,,134
2013-10-18,77,67,57,58,51,35,88,56,22,30.12,30.05,29.95,6,5,3,9,6,,0.00,2,,282
2013-10-19,81,68,55,55,52,48,84,57,24,30.18,30.09,29.98,6,6,6,12,6,,0.00,1,,270
2013-10-20,78,66,54,57,54,50,88,64,34,30.18,30.12,30.01,6,6,6,8,2,,0.00,2,,313
2013-10-21,84,70,56,54,49,36,82,50,18,30.15,30.05,29.90,6,6,6,9,4,,0.00,,,262
2013-10-22,77,66,56,54,48,45,77,52,24,30.09,30.03,29.93,6,5,4,10,3,,0.00,6,,228
2013-10-23,81,69,57,61,48,41,83,49,21,31.08,30.11,29.97,6,6,6,8,3,,0.00,6,,249
2013-10-24,83,70,57,61,51,42,88,52,21,30.09,30.05,29.93,6,6,6,9,5,,0.00,3,,223
2013-10-25,76,66,55,59,53,46,88,63,35,30.09,29.98,29.90,6,6,5,13,6,,0.00,5,,275
2013-10-26,64,60,55,55,51,45,94,72,38,30.18,30.11,30.04,5,4,2,10,4,,0.16,5,Rain-Thunderstorm,321
2013-10-27,81,66,52,59,53,39,94,69,31,30.18,30.11,29.98,6,5,4,9,4,,0.00,4,,97
2013-10-28,86,74,62,62,42,36,81,42,21,30.12,30.09,30.05,6,6,5,9,7,,0.00,6,,157
2013-10-29,72,64,55,56,52,46,88,67,44,30.21,30.14,30.04,6,6,3,12,6,,0.00,4,,296
2013-10-30,66,56,46,45,37,-15,87,56,4,30.19,30.14,30.06,6,6,6,28,7,,0.00,,,228
2013-10-31,72,58,43,43,36,30,67,44,11,30.18,30.12,30.03,6,6,6,10,5,,0.00,,,83